Location: Sungai Dangang
(2.7500°N, 113.8333°E)
Time: 04:56:15
(UTC+00:00)

Milstar 3 Cent rocket - Pass Details

Date: 16 May 2021
Orbit: 708 x 5145 km, 28.3° (Epoch: 16 June)

Event Time Altitude Azimuth Distance (km) Brightness Sun altitude
Exits shadow 20:48:49 18° 214° (SW) 3,843 5.1 -20.7°
Maximum altitude 20:55:54 36° 161° (SSE) 2,096 4.2 -19.1°
Drops below altitude 10° 21:01:51 10° 95° (E) 2,738 5.8 -17.7°
Sets 21:04:06 0° 85° (E) 3,447 6.8 -17.1°
